This demonstration page uses our WeatherBlox Daily Observations layout. Learn more.

Left ArrowRight Arrow

36.17497, -115.13722

Hourly Observations for April 9, 2016

Temp ( °F °C ) Dew Point ( °F °C ) Humidity (%) Winds ( mph kmh ) Pressure ( in mb ) Visibility ( mi km ) Precip ( " mm )
12:53 am 00:53 Cloudy 60 15.6 51 10.6 72 72 Calm 29.95 1014 10 16.0934 0 0.0254
1:53 am 01:53 Cloudy 59 15 52 11.1 78 78 E 6 9 29.94 1014 10 16.0934 0 0
2:53 am 02:53 Cloudy 59 15 51 10.6 75 75 S 6 9 29.94 1014 10 16.0934 0 0
3:53 am 03:53 Cloudy with Light Rain 58 14.4 52 11.1 81 81 Calm 29.94 1014 10 16.0934 0.02 0.508
4:33 am 04:33 Cloudy with Light Rain 57 13.9 53 11.7 87 87 Calm 29.88 1012 9 14.48406 0.01 0.254
4:40 am 04:40 Cloudy with Light Rain 57 14 54 12 88 88 Calm 29.88 1012 10 16.0934 0 0
4:53 am 04:53 Cloudy 57 13.9 53 11.7 87 87 Calm 29.94 1014 10 16.0934 0.01 0.254
5:53 am 05:53 Cloudy with Light Rain 57 13.9 54 12.2 90 90 W 5 7 29.95 1014 4 6.43736 0.06 1.524
6:53 am 06:53 Mostly Cloudy with Light Rain 56 13.3 53 11.7 90 90 E 6 9 29.94 1014 10 16.0934 0.02 0.508
7:18 am 07:18 Mostly Cloudy 57 14 55 13 94 94 Calm 29.91 1013 10 16.0934 0 0
7:28 am 07:28 Partly Cloudy 57 14 54 12 88 88 Calm 29.91 1013 10 16.0934 0 0
7:53 am 07:53 Mostly Sunny 57 13.9 54 12.2 90 90 Calm 29.96 1014 10 16.0934 0 0.0254
8:53 am 08:53 Mostly Sunny 58 14.4 54 12.2 87 87 E 5 7 29.97 1015 10 16.0934 0 0
9:23 am 09:23 Mostly Cloudy 61 16.1 54 12.2 78 78 E 8 13 29.91 1013 10 16.0934 0 0
9:34 am 09:34 Partly Cloudy 61 16 54 12 77 77 SE 8 13 29.91 1013 10 16.0934 0 0
9:53 am 09:53 Mostly Cloudy 62 16.7 54 12.2 75 75 ESE 9 15 29.96 1015 10 16.0934 0 0
10:53 am 10:53 Mostly Cloudy 64 17.8 54 12.2 70 70 ESE 7 11 29.95 1014 10 16.0934 0 0
11:06 am 11:06 Mostly Cloudy 64 17.8 54 12.2 70 70 SE 13 20 29.85 1011 10 16.0934 0 0
11:53 am 11:53 Sunny 66 18.9 52 11.1 61 61 ESE 13 20 29.91 1013 10 16.0934 0 0
12:53 pm 12:53 Cloudy with Light Rain 63 17.2 52 11.1 68 68 SE 10 17 29.91 1013 4 6.43736 0.12 3.048
12:56 pm 12:56 Cloudy with Heavy Rain 63 17 54 12 73 73 SE 14 22 29.85 1011 1.5 2.41401 0 0
12:59 pm 12:59 Cloudy with Heavy Rain 60 15.6 54 12.2 80 80 SSE 23 37 29.88 1012 0.75 1.207005 0.36 9.144
1:06 pm 13:06 Cloudy with Heavy Rain 52 11 50 10 94 94 SSE 14 22 29.91 1013 0.25 0.402335 0 0
1:14 pm 13:14 Cloudy with Heavy Rain 52 11 52 11 100 100 VRB 6 9 29.91 1013 1 1.60934 0 0
1:19 pm 13:19 Cloudy with Light Rain 53 11.7 52 11.1 96 96 ENE 9 15 29.88 1012 2 3.21868 1.1 27.94
1:27 pm 13:27 Mostly Cloudy with Light Rain 55 12.8 54 12.2 96 96 E 12 19 29.85 1011 8 12.87472 1.11 28.194
1:35 pm 13:35 Partly Cloudy 57 13.9 55 12.8 93 93 E 9 15 29.85 1011 10 16.0934 1.11 28.194
1:53 pm 13:53 Partly Cloudy 57 13.9 56 13.3 96 96 NNE 7 11 29.93 1014 10 16.0934 1.11 28.194
2:53 pm 14:53 Mostly Sunny 60 15.6 54 12.2 80 80 NNE 7 11 29.9 1013 10 16.0934 0.08 2.032
3:42 pm 15:42 Cloudy with Heavy Rain 57 14 54 12 88 88 E 8 13 29.85 1011 1.75 2.816345 0 0
3:53 pm 15:53 Cloudy with Light Rain 57 13.9 55 12.8 93 93 NNW 5 7 29.89 1012 4 6.43736 0.13 3.302
4:53 pm 16:53 Mostly Cloudy 60 15.6 53 11.7 78 78 E 8 13 29.88 1012 10 16.0934 0 0.0254
5:53 pm 17:53 Cloudy with Light Rain 57 13.9 52 11.1 83 83 SE 5 7 29.88 1012 4 6.43736 0.04 1.016
6:53 pm 18:53 Cloudy 57 13.9 53 11.7 87 87 NNE 6 9 29.86 1011 10 16.0934 0 0.0254
7:36 pm 19:36 Cloudy 57 14 54 12 88 88 SE 10 17 29.83 1010 10 16.0934 0 0
7:50 pm 19:50 Cloudy 57 14 54 12 88 88 ESE 9 15 29.83 1010 10 16.0934 0 0
7:53 pm 19:53 Cloudy 56 13.3 53 11.7 90 90 ESE 9 15 29.88 1012 10 16.0934 0 0
8:53 pm 20:53 Cloudy 57 13.9 52 11.1 83 83 NNE 6 9 29.87 1012 10 16.0934 0 0
9:53 pm 21:53 Cloudy 56 13.3 51 10.6 84 84 E 6 9 29.9 1012 10 16.0934 0 0
10:53 pm 22:53 Cloudy 55 12.8 53 11.7 93 93 ENE 10 17 29.88 1012 10 16.0934 0.06 1.524
11:53 pm 23:53 Cloudy with Light Rain 55 12.8 52 11.1 90 90 WSW 3 6 29.87 1012 10 16.0934 0 0.0254

Powered by AerisWeather